Simultaneous Nadir Overpasses (SNOs) Predictions

Prediction of SNOs between GOES-14 and NOAA-20 Satellite Orbit:

Table of predicted SNOs for the next 14.0 days since TLE Epoch: 7/4/2025
Index Date Time (GOES-14) GOES-14 Lat,Lon NOAA-20 Lat,Lon Distance(km) Time Diff (sec)
1 07/04/2025 20:39:28 0.49,-108.17 0.23,-109.23 121.51 80
2 07/05/2025 20:23:26 0.46,-108.16 1.25,-104.71 393.98 80
3 07/07/2025 08:42:38 -0.53,-108.12 -0.14,-110.01 214.22 80
4 07/08/2025 08:26:35 -0.50,-108.11 -1.09,-105.47 300.74 80
5 07/09/2025 20:45:55 0.57,-108.12 -0.04,-110.80 305.76 80
6 07/10/2025 20:29:52 0.55,-108.11 0.97,-106.27 209.41 80
7 07/12/2025 08:49:04 -0.61,-108.07 0.19,-111.56 398.22 80
8 07/13/2025 08:33:01 -0.58,-108.05 -0.83,-107.04 116.72 80
9 07/14/2025 20:52:22 0.64,-108.06 -0.30,-112.36 490.23 80
10 07/15/2025 20:36:18 0.62,-108.05 0.66,-107.83 25.06 80
11 07/18/2025 08:36:47 -0.64,-108.00 -0.53,-108.59 66.87 80
